Location: Unspecified
(0.0000°N, 0.0000°E)
Time: 04:05:55
(UTC+00:00)

Courier 1B - All Passes

Search period start: 27 April 2015 00:00
Search period end: 07 May 2015 00:00
Orbit: 963 x 1209 km, 28.3° (Epoch: 26 April)

Date Brightness Start Highest point End Pass type
(mag) Time Alt. Az. Time Alt. Az. Time Alt. Az.
27 Apr - 00:53:41 10° SSW 00:58:12 19° SSE 01:02:47 10° ESE night (unlit)
27 Apr - 02:46:06 10° SW 02:52:36 70° SSE 02:59:03 10° ENE visible
27 Apr - 04:41:01 10° W 04:46:42 31° NNW 04:52:26 10° NNE visible
27 Apr - 12:25:22 10° NNW 12:30:38 20° NNE 12:36:13 10° ENE daylight
27 Apr - 14:17:50 10° NW 14:25:29 63° NNE 14:33:16 10° ESE daylight
27 Apr - 16:12:38 10° W 16:20:02 43° SSW 16:27:17 10° SE daylight
27 Apr - 18:11:14 10° SW 18:15:13 14° SSW 18:18:52 10° S visible
28 Apr - 00:00:48 10° S 00:04:11 14° SSE 00:07:42 10° SE night (unlit)
28 Apr - 01:52:32 10° SW 01:58:52 49° SSE 02:05:06 10° ENE visible
28 Apr - 03:46:47 10° W 03:52:55 44° NNW 03:59:04 10° NE visible
28 Apr - 05:44:45 10° NW 05:47:37 13° NNW 05:50:19 10° N daylight
28 Apr - 11:32:34 10° N 11:36:26 15° NNE 11:40:38 10° NE daylight
28 Apr - 13:24:13 10° NW 13:31:28 46° NNE 13:38:58 10° E daylight
28 Apr - 15:18:19 10° WNW 15:25:59 58° SSW 15:33:40 10° SE daylight
28 Apr - 17:15:34 10° WSW 17:20:58 19° SSW 17:26:04 10° SSE daylight
28 Apr - 23:08:33 10° S 23:10:03 11° SSE 23:11:46 10° SSE night (unlit)
29 Apr - 00:59:04 10° SW 01:05:05 35° SSE 01:10:57 10° E night (unlit)
29 Apr - 02:52:43 10° WSW 02:59:11 63° NNW 03:05:35 10° NE visible
29 Apr - 04:49:23 10° WNW 04:53:36 17° NNW 04:57:40 10° NNE visible
29 Apr - 10:40:43 10° N 10:42:10 11° NNE 10:43:56 10° NNE daylight
29 Apr - 12:30:49 10° NW 12:37:26 34° NNE 12:44:24 10° E daylight
29 Apr - 14:24:14 10° WNW 14:31:59 78° SSW 14:39:53 10° SE daylight
29 Apr - 16:20:25 10° W 16:26:46 26° SSW 16:32:55 10° SSE daylight
30 Apr - 00:05:43 10° SSW 00:11:12 26° SSE 00:16:35 10° E night (unlit)
30 Apr - 01:58:49 10° WSW 02:05:29 89° NNW 02:11:58 10° ENE visible
30 Apr - 03:54:33 10° W 03:59:41 24° NNW 04:04:43 10° NNE visible
30 Apr - 11:37:36 10° NNW 11:43:23 25° NNE 11:49:31 10° E daylight
30 Apr - 13:30:23 10° NW 13:38:00 79° NNE 13:45:54 10° ESE daylight
30 Apr - 15:25:40 10° W 15:32:37 34° SSW 15:39:32 10° SE daylight
30 Apr - 17:25:27 10° SW 17:28:06 12° SSW 17:30:29 10° S daylight
30 Apr - 23:12:29 10° SSW 23:17:13 19° SSE 23:21:56 10° ESE night (unlit)
01 May - 01:05:03 10° SW 01:11:46 66° SSE 01:18:13 10° ENE night (unlit)
01 May - 03:00:01 10° W 03:05:51 33° NNW 03:11:33 10° NE visible
01 May - 10:44:40 10° NNW 10:49:17 18° NNE 10:54:16 10° ENE daylight
01 May - 12:36:43 10° NW 12:44:01 59° NNE 12:51:43 10° ESE daylight
01 May - 14:31:14 10° W 14:38:33 45° SSW 14:45:59 10° SE daylight
01 May - 16:29:16 10° SW 16:33:46 16° SSW 16:38:00 10° SSE daylight
01 May - 22:19:26 10° S 22:23:07 15° SSE 22:26:53 10° SE night (unlit)
02 May - 00:11:23 10° SW 00:17:59 47° SSE 00:24:17 10° ENE night (unlit)
02 May - 02:05:42 10° WSW 02:12:05 47° NNW 02:18:16 10° NE visible
02 May - 04:03:38 10° NW 04:06:40 13° NNW 04:09:28 10° N visible
02 May - 09:52:13 10° N 09:55:08 13° NNE 09:58:24 10° NE daylight
02 May - 11:43:16 10° NW 11:50:04 42° NNE 11:57:18 10° E daylight
02 May - 13:37:03 10° WNW 13:44:31 61° SSW 13:52:15 10° SE daylight
02 May - 15:33:53 10° WSW 15:39:29 21° SSW 15:44:57 10° SSE daylight
02 May - 21:26:51 10° S 21:28:53 11° SSE 21:31:08 10° SE night (unlit)
02 May - 23:17:50 10° SW 23:24:08 34° SSE 23:30:09 10° E night (unlit)
03 May - 01:11:34 10° WSW 01:18:21 68° NNW 01:24:49 10° NE night (unlit)
03 May - 03:08:14 10° WNW 03:12:41 18° NNW 03:16:55 10° NNE visible
03 May - 10:50:01 10° NNW 10:56:06 31° NNE 11:02:38 10° E daylight
03 May - 12:43:07 10° WNW 12:50:32 82° SSW 12:58:22 10° ESE daylight
03 May - 14:38:56 10° W 14:45:17 27° SSW 14:51:38 10° SSE daylight
03 May - 22:24:22 10° SSW 22:30:09 26° SSE 22:35:46 10° E night (unlit)
04 May - 00:17:35 10° WSW 00:24:37 86° SSE 00:31:14 10° ENE night (unlit)
04 May - 02:13:19 10° W 02:18:48 26° NNW 02:24:01 10° NNE visible
04 May - 09:56:58 10° NNW 10:02:07 22° NNE 10:07:40 10° ENE daylight
04 May - 11:49:24 10° NW 11:56:37 74° NNE 12:04:18 10° ESE daylight
04 May - 13:44:21 10° W 13:51:10 35° SSW 13:58:09 10° SE daylight
04 May - 15:43:28 10° SW 15:46:38 12° SSW 15:49:33 10° S daylight
04 May - 21:31:02 10° SSW 21:36:04 20° SSE 21:41:04 10° ESE night (unlit)
04 May - 23:23:44 10° SW 23:30:49 63° SSE 23:37:28 10° ENE night (unlit)
05 May - 01:18:44 10° W 01:24:58 36° NNW 01:30:53 10° NE night (unlit)
05 May - 03:19:14 10° NNW 03:19:46 10° NNW 03:20:02 10° NNW visible
05 May - 09:04:14 10° N 09:08:04 16° NNE 09:12:16 10° ENE daylight
05 May - 10:55:53 10° NW 11:02:43 54° NNE 11:10:03 10° ESE daylight
05 May - 12:50:04 10° W 12:57:07 47° SSW 13:04:30 10° SE daylight
05 May - 14:47:41 10° WSW 14:52:18 16° SSW 14:56:45 10° SSE daylight
05 May - 20:37:53 10° SSW 20:41:53 15° SSE 20:45:59 10° SE visible
05 May - 22:30:00 10° SW 22:36:57 46° SSE 22:43:31 10° E night (unlit)
06 May - 00:24:21 10° WSW 00:31:11 52° NNW 00:37:36 10° NE night (unlit)
06 May - 02:22:08 10° WNW 02:25:43 14° NNW 02:29:00 10° N visible
06 May - 08:12:21 10° N 08:13:59 11° NNE 08:15:54 10° NE daylight
06 May - 10:02:33 10° NW 10:08:51 38° NNE 10:15:36 10° E daylight
06 May - 11:56:02 10° WNW 12:03:09 64° SSW 12:10:43 10° SE daylight
06 May - 13:52:30 10° WSW 13:58:02 21° SSW 14:03:33 10° SSE daylight
06 May - 19:45:08 10° S 19:47:35 12° SSE 19:50:14 10° SE visible
06 May - 21:36:23 10° SW 21:43:00 34° SSE 21:49:19 10° E night (unlit)
06 May - 23:30:10 10° WSW 23:37:23 73° NNW 23:44:09 10° NE night (unlit)
